Flag for U.S.A. Weather past 2 weeks in Aliso Viejo, California, U.S.A.

Now
61 °F

Overcast.


Feels Like: 61 °F
Forecast: 56 / 65 °F
Wind: 7 mph from South

Location: John Wayne Airport-Orange County Airport

Current Time: Apr 21, 2015 at 8:15:56 AM

Latest Report: Apr 21, 2015 at 7:53 AM


Visibility: 10 mi

Pressure: 29.93 "Hg

Humidity: 52%

Dew point: 43 °F

Location of Aliso ViejoLocation

Historic Weather in Aliso Viejo — Graph

°F

Aliso Viejo temperature yesterday

Maximum temperature yesterday: 68 °F (at 1:53 PM)
Minimum temperature yesterday: 59 °F (at 12:53 AM)
Average temperature yesterday: 62 °F

Past Weeks' High & Low Weather Summary

 TemperatureHumidityPressure
High79 °F (Apr 17, 12:53 PM)90% (Apr 19, 12:53 AM)30.11 "Hg (Apr 19, 12:53 AM)
Low52 °F (Apr 7, 3:53 AM)6% (Apr 16, 10:53 AM)29.85 "Hg (Apr 20, 5:53 PM)
Average63 °F57%29.97 "Hg
* Reported Apr 6 6:53 AM — Apr 21 6:53 AM, Aliso Viejo, Weather by CustomWeather, © 2015

Note: Actual official high and low records may vary slightly from our data, if they occured in-between our weather recording intervals... More about our weather records

Advertising

Aliso Viejo weather history for previous 24 hours

 ConditionsComfort  
Time TempWeatherWind HumidityBarometerVisibility
6:53 AM
Tue, Apr 21
60 °FOvercast.No wind62%29.92 "Hg10 mi
5:53 AM60 °FOvercast.3 mph65%29.90 "Hg10 mi
4:53 AM60 °FOvercast.6 mph67%29.89 "Hg10 mi
3:53 AM60 °FMostly cloudy.5 mph69%29.89 "Hg10 mi
2:53 AM60 °FMostly cloudy.No wind69%29.89 "Hg10 mi
1:53 AM60 °FOvercast.8 mph69%29.90 "Hg10 mi
12:53 AM61 °FOvercast.6 mph65%29.90 "Hg10 mi
11:53 PM
Mon, Apr 20
60 °FOvercast.6 mph72%29.91 "Hg10 mi
10:53 PM60 °FOvercast.3 mph72%29.91 "Hg10 mi
9:53 PM59 °FOvercast.3 mph75%29.90 "Hg10 mi
8:53 PM60 °FPassing clouds.5 mph72%29.89 "Hg10 mi
7:53 PM60 °FPassing clouds.7 mph69%29.87 "Hg10 mi
6:53 PM61 °FSunny.8 mph65%29.85 "Hg10 mi
5:53 PM63 °FScattered clouds.8 mph60%29.85 "Hg10 mi
4:53 PM66 °FScattered clouds.9 mph54%29.85 "Hg10 mi
3:53 PM65 °FPassing clouds.8 mph56%29.85 "Hg10 mi
2:53 PM67 °FPassing clouds.9 mph53%29.85 "Hg10 mi
1:53 PM68 °FPassing clouds.8 mph51%29.87 "Hg10 mi
12:53 PM66 °FPassing clouds.9 mph54%29.88 "Hg10 mi
11:53 AM67 °FPassing clouds.8 mph55%29.90 "Hg10 mi
10:53 AM65 °FScattered clouds.5 mph56%29.90 "Hg10 mi
9:53 AM63 °FPartly sunny.No wind60%29.91 "Hg10 mi
8:53 AM62 °FPartly sunny.3 mph62%29.90 "Hg10 mi
Weather by CustomWeather, © 2015

See weather overviewHow to use our weather pages